NSS-11

Last updated on Tue Sep 22 2026 00:03:10 GMT+0000 (Coordinated Universal Time)

1 26554U 00059A 26264.37318545 .00000022 00000+0 00000+0 0 9994 2 26554 2.3674 80.1363 0003081 111.5337 118.9522 1.00273115 42251
UTC large
Height (km)
Speed (km/s)
/
Latitude / Longitude
Inclination (degrees)
Orbital Period (minutes)
Azimuth
Elevation
Range (km)
Doppler Factor

Next 0 passes for location: London (51.5072 / 0.1276)

No passes found over London.
NSS-11